Time,TemperatureF,DewpointF,PressureIn,WindDirection,WindDirectionDegrees,WindSpeedMPH,WindSpeedGustMPH,Humidity,HourlyPrecipIn,Conditions,Clouds,dailyrainin,SoftwareType,DateUTC
2013-04-17 00:03:00,53.0,50.0,30.12,SSW,211,1.0,-999.0,90,-99.99,,,-99.99,,2013-04-17 04:03:00,
2013-04-17 00:13:00,53.0,50.0,30.12,SSW,211,1.0,-999.0,90,-99.99,,,-99.99,,2013-04-17 04:13:00,
2013-04-17 00:22:00,53.0,50.0,30.12,SSW,210,4.0,-999.0,90,-99.99,,,-99.99,,2013-04-17 04:22:00,
2013-04-17 00:33:00,53.0,50.0,30.11,SW,224,4.0,-999.0,90,-99.99,,,-99.99,,2013-04-17 04:33:00,
2013-04-17 00:42:00,53.0,50.0,30.11,SW,224,4.0,-999.0,90,-99.99,,,-99.99,,2013-04-17 04:42:00,
2013-04-17 00:52:00,53.0,50.0,30.12,SW,231,3.0,-999.0,89,-99.99,,,-99.99,,2013-04-17 04:52:00,
2013-04-17 01:03:00,53.0,50.0,30.12,SW,235,1.0,-999.0,89,-99.99,,,-99.99,,2013-04-17 05:03:00,
2013-04-17 01:12:00,53.0,50.0,30.12,SW,235,1.0,-999.0,89,-99.99,,,-99.99,,2013-04-17 05:12:00,
2013-04-17 01:22:00,54.0,51.0,30.12,West,274,2.0,-999.0,90,-99.99,,,-99.99,,2013-04-17 05:22:00,
2013-04-17 01:32:00,54.0,51.0,30.12,WSW,243,2.0,-999.0,89,-99.99,,,-99.99,,2013-04-17 05:32:00,
2013-04-17 01:42:00,54.0,51.0,30.12,WSW,243,2.0,-999.0,89,-99.99,,,-99.99,,2013-04-17 05:42:00,
2013-04-17 01:52:00,54.0,51.0,30.12,SW,218,1.0,-999.0,89,-99.99,,,-99.99,,2013-04-17 05:52:00,
2013-04-17 02:02:00,54.0,51.0,30.12,SW,224,0.0,-999.0,89,-99.99,,,-99.99,,2013-04-17 06:02:00,
2013-04-17 02:12:00,54.0,51.0,30.12,SW,224,0.0,-999.0,89,-99.99,,,-99.99,,2013-04-17 06:12:00,
2013-04-17 02:22:00,54.0,51.0,30.12,SW,229,1.0,-999.0,89,-99.99,,,-99.99,,2013-04-17 06:22:00,
2013-04-17 02:32:00,54.0,51.0,30.12,West,262,1.0,-999.0,89,-99.99,,,-99.99,,2013-04-17 06:32:00,
2013-04-17 02:42:00,54.0,51.0,30.12,West,262,1.0,-999.0,89,-99.99,,,-99.99,,2013-04-17 06:42:00,
2013-04-17 02:52:00,54.0,51.0,30.12,West,262,0.0,-999.0,89,-99.99,,,-99.99,,2013-04-17 06:52:00,
2013-04-17 03:02:00,54.0,51.0,30.11,West,264,0.0,-999.0,89,-99.99,,,-99.99,,2013-04-17 07:02:00,
2013-04-17 03:12:00,54.0,51.0,30.11,West,264,0.0,-999.0,89,-99.99,,,-99.99,,2013-04-17 07:12:00,
2013-04-17 03:22:00,54.0,51.0,30.13,NNW,336,0.0,-999.0,90,-99.99,,,-99.99,,2013-04-17 07:22:00,
2013-04-17 03:32:00,53.0,50.0,30.14,NNE,31,2.0,-999.0,91,-99.99,,,-99.99,,2013-04-17 07:32:00,
2013-04-17 03:42:00,53.0,50.0,30.14,NNE,31,2.0,-999.0,91,-99.99,,,-99.99,,2013-04-17 07:42:00,
2013-04-17 03:52:00,52.0,49.0,30.15,NE,43,6.0,-999.0,91,-99.99,,,-99.99,,2013-04-17 07:52:00,
2013-04-17 04:02:00,50.0,46.0,30.15,NE,45,5.0,-999.0,85,-99.99,,,-99.99,,2013-04-17 08:02:00,
2013-04-17 04:12:00,50.0,46.0,30.15,NE,45,5.0,-999.0,85,-99.99,,,-99.99,,2013-04-17 08:12:00,
2013-04-17 04:22:00,49.0,44.0,30.15,NNE,25,6.0,-999.0,82,-99.99,,,-99.99,,2013-04-17 08:22:00,
2013-04-17 04:32:00,48.0,43.0,30.14,NE,54,4.0,-999.0,82,-99.99,,,-99.99,,2013-04-17 08:32:00,
2013-04-17 04:42:00,48.0,43.0,30.14,NE,54,4.0,-999.0,82,-99.99,,,-99.99,,2013-04-17 08:42:00,
2013-04-17 04:52:00,48.0,42.0,30.14,NNE,24,4.0,-999.0,80,-99.99,,,-99.99,,2013-04-17 08:52:00,
2013-04-17 05:02:00,48.0,42.0,30.14,North,359,1.0,-999.0,80,-99.99,,,-99.99,,2013-04-17 09:02:00,
2013-04-17 05:12:00,48.0,42.0,30.14,North,359,1.0,-999.0,80,-99.99,,,-99.99,,2013-04-17 09:12:00,
2013-04-17 05:22:00,48.0,41.0,30.14,NNE,29,3.0,-999.0,78,-99.99,,,-99.99,,2013-04-17 09:22:00,
2013-04-17 05:33:00,48.0,41.0,30.14,NNE,19,1.0,-999.0,78,-99.99,,,-99.99,,2013-04-17 09:33:00,
2013-04-17 05:42:00,48.0,41.0,30.14,NNE,19,1.0,-999.0,78,-99.99,,,-99.99,,2013-04-17 09:42:00,
2013-04-17 05:52:00,48.0,41.0,30.14,North,8,1.0,-999.0,77,-99.99,,,-99.99,,2013-04-17 09:52:00,
2013-04-17 06:03:00,48.0,41.0,30.14,NNE,22,2.0,-999.0,77,-99.99,,,-99.99,,2013-04-17 10:03:00,
2013-04-17 06:12:00,48.0,41.0,30.14,NNE,22,2.0,-999.0,77,-99.99,,,-99.99,,2013-04-17 10:12:00,
2013-04-17 06:23:00,48.0,41.0,30.15,NE,37,1.0,-999.0,77,-99.99,,,-99.99,,2013-04-17 10:23:00,
2013-04-17 06:32:00,48.0,40.0,30.15,NNE,25,4.0,-999.0,75,-99.99,,,-99.99,,2013-04-17 10:32:00,
2013-04-17 06:43:00,48.0,40.0,30.15,NNE,25,4.0,-999.0,75,-99.99,,,-99.99,,2013-04-17 10:43:00,
2013-04-17 06:52:00,48.0,40.0,30.15,NE,37,3.0,-999.0,74,-99.99,,,-99.99,,2013-04-17 10:52:00,
2013-04-17 07:02:00,48.0,40.0,30.16,NNE,29,2.0,-999.0,74,-99.99,,,-99.99,,2013-04-17 11:02:00,
2013-04-17 07:12:00,48.0,40.0,30.16,NNE,29,2.0,-999.0,74,-99.99,,,-99.99,,2013-04-17 11:12:00,
2013-04-17 07:22:00,48.0,40.0,30.17,NE,35,2.0,-999.0,73,-99.99,,,-99.99,,2013-04-17 11:22:00,
2013-04-17 07:32:00,48.0,37.0,30.17,NE,41,6.0,-999.0,66,-99.99,,,-99.99,,2013-04-17 11:32:00,
2013-04-17 07:42:00,48.0,37.0,30.17,NE,41,6.0,-999.0,66,-99.99,,,-99.99,,2013-04-17 11:42:00,
2013-04-17 07:52:00,47.0,36.0,30.18,NE,37,5.0,-999.0,65,-99.99,,,-99.99,,2013-04-17 11:52:00,
2013-04-17 08:03:00,48.0,37.0,30.19,NE,45,5.0,-999.0,65,-99.99,,,-99.99,,2013-04-17 12:03:00,
2013-04-17 08:12:00,48.0,37.0,30.19,NE,45,5.0,-999.0,65,-99.99,,,-99.99,,2013-04-17 12:12:00,
2013-04-17 08:22:00,47.0,37.0,30.20,NE,48,7.0,-999.0,67,-99.99,,,-99.99,,2013-04-17 12:22:00,
2013-04-17 08:32:00,48.0,37.0,30.20,North,4,9.0,-999.0,66,-99.99,,,-99.99,,2013-04-17 12:32:00,
2013-04-17 08:42:00,48.0,37.0,30.20,North,4,9.0,-999.0,66,-99.99,,,-99.99,,2013-04-17 12:42:00,
2013-04-17 08:52:00,49.0,37.0,30.21,NNE,17,8.0,-999.0,63,-99.99,,,-99.99,,2013-04-17 12:52:00,
2013-04-17 09:02:00,48.0,36.0,30.21,NNE,24,8.0,-999.0,64,-99.99,,,-99.99,,2013-04-17 13:02:00,
2013-04-17 09:12:00,48.0,36.0,30.21,NNE,24,8.0,-999.0,64,-99.99,,,-99.99,,2013-04-17 13:12:00,
2013-04-17 09:22:00,49.0,36.0,30.21,NNE,29,9.0,-999.0,60,-99.99,,,-99.99,,2013-04-17 13:22:00,
2013-04-17 09:32:00,50.0,35.0,30.22,North,10,10.0,-999.0,57,-99.99,,,-99.99,,2013-04-17 13:32:00,
2013-04-17 09:42:00,50.0,35.0,30.22,North,10,10.0,-999.0,57,-99.99,,,-99.99,,2013-04-17 13:42:00,
2013-04-17 09:52:00,50.0,35.0,30.23,NNE,29,8.0,-999.0,57,-99.99,,,-99.99,,2013-04-17 13:52:00,
2013-04-17 10:02:00,51.0,34.0,30.23,NE,48,9.0,-999.0,51,-99.99,,,-99.99,,2013-04-17 14:02:00,
2013-04-17 10:12:00,51.0,34.0,30.23,NE,48,9.0,-999.0,51,-99.99,,,-99.99,,2013-04-17 14:12:00,
2013-04-17 10:22:00,52.0,33.0,30.22,NE,51,9.0,-999.0,48,-99.99,,,-99.99,,2013-04-17 14:22:00,
2013-04-17 10:32:00,53.0,33.0,30.23,NNW,348,10.0,-999.0,47,-99.99,,,-99.99,,2013-04-17 14:32:00,
2013-04-17 10:42:00,53.0,33.0,30.23,East,87,10.0,-999.0,46,-99.99,,,-99.99,,2013-04-17 14:42:00,
2013-04-17 10:52:00,53.0,33.0,30.23,East,87,10.0,-999.0,46,-99.99,,,-99.99,,2013-04-17 14:52:00,
2013-04-17 11:02:00,54.0,33.0,30.23,NE,39,8.0,-999.0,45,-99.99,,,-99.99,,2013-04-17 15:02:00,
2013-04-17 11:12:00,55.0,33.0,30.23,North,4,8.0,-999.0,43,-99.99,,,-99.99,,2013-04-17 15:12:00,
2013-04-17 11:22:00,55.0,33.0,30.23,North,4,8.0,-999.0,43,-99.99,,,-99.99,,2013-04-17 15:22:00,
2013-04-17 11:33:00,55.0,33.0,30.22,WNW,301,9.0,-999.0,43,-99.99,,,-99.99,,2013-04-17 15:33:00,
2013-04-17 11:43:00,55.0,33.0,30.22,WNW,301,9.0,-999.0,43,-99.99,,,-99.99,,2013-04-17 15:43:00,
2013-04-17 11:53:00,55.0,32.0,30.22,NE,37,9.0,-999.0,41,-99.99,,,-99.99,,2013-04-17 15:53:00,
2013-04-17 12:03:00,56.0,34.0,30.22,NE,56,7.0,-999.0,44,-99.99,,,-99.99,,2013-04-17 16:03:00,
2013-04-17 12:12:00,56.0,34.0,30.22,NE,56,7.0,-999.0,44,-99.99,,,-99.99,,2013-04-17 16:12:00,
2013-04-17 12:23:00,56.0,34.0,30.22,NE,56,7.0,-999.0,44,-99.99,,,-99.99,,2013-04-17 16:23:00,
2013-04-17 12:32:00,57.0,34.0,30.21,NW,322,6.0,-999.0,41,-99.99,,,-99.99,,2013-04-17 16:32:00,
2013-04-17 12:42:00,57.0,34.0,30.21,NW,322,6.0,-999.0,41,-99.99,,,-99.99,,2013-04-17 16:42:00,
2013-04-17 12:52:00,57.0,35.0,30.21,NNW,335,6.0,-999.0,43,-99.99,,,-99.99,,2013-04-17 16:52:00,
2013-04-17 13:02:00,57.0,35.0,30.21,NNW,335,6.0,-999.0,43,-99.99,,,-99.99,,2013-04-17 17:02:00,
2013-04-17 13:12:00,57.0,35.0,30.21,NNW,335,6.0,-999.0,43,-99.99,,,-99.99,,2013-04-17 17:12:00,
2013-04-17 13:22:00,59.0,31.0,30.20,NE,47,8.0,-999.0,35,-99.99,,,-99.99,,2013-04-17 17:22:00,
2013-04-17 13:33:00,60.0,32.0,30.20,NNE,29,5.0,-999.0,35,-99.99,,,-99.99,,2013-04-17 17:33:00,
2013-04-17 13:42:00,60.0,32.0,30.20,NNE,29,5.0,-999.0,35,-99.99,,,-99.99,,2013-04-17 17:42:00,
2013-04-17 13:52:00,60.0,32.0,30.20,NNE,25,6.0,-999.0,34,-99.99,,,-99.99,,2013-04-17 17:52:00,
2013-04-17 14:02:00,61.0,32.0,30.20,NE,43,7.0,-999.0,34,-99.99,,,-99.99,,2013-04-17 18:02:00,
2013-04-17 14:12:00,61.0,32.0,30.20,NE,43,7.0,-999.0,34,-99.99,,,-99.99,,2013-04-17 18:12:00,
2013-04-17 14:22:00,61.0,32.0,30.20,NE,43,7.0,-999.0,34,-99.99,,,-99.99,,2013-04-17 18:22:00,
2013-04-17 14:32:00,61.0,32.0,30.21,NNW,340,7.0,-999.0,33,-99.99,,,-99.99,,2013-04-17 18:32:00,
2013-04-17 14:42:00,61.0,32.0,30.21,NNW,340,7.0,-999.0,33,-99.99,,,-99.99,,2013-04-17 18:42:00,
2013-04-17 14:52:00,63.0,33.0,30.20,NNW,336,4.0,-999.0,33,-99.99,,,-99.99,,2013-04-17 18:52:00,
2013-04-17 15:02:00,63.0,33.0,30.20,NNW,336,4.0,-999.0,33,-99.99,,,-99.99,,2013-04-17 19:02:00,
2013-04-17 15:12:00,63.0,33.0,30.20,NNW,336,4.0,-999.0,33,-99.99,,,-99.99,,2013-04-17 19:12:00,
2013-04-17 15:22:00,63.0,33.0,30.20,NNW,336,4.0,-999.0,33,-99.99,,,-99.99,,2013-04-17 19:22:00,
2013-04-17 15:42:00,62.0,29.0,30.21,NNW,340,6.0,-999.0,29,-99.99,,,-99.99,,2013-04-17 19:42:00,
2013-04-17 15:52:00,62.0,29.0,30.21,NNW,340,6.0,-999.0,29,-99.99,,,-99.99,,2013-04-17 19:52:00,
2013-04-17 16:03:00,62.0,32.0,30.20,NW,316,6.0,-999.0,32,-99.99,,,-99.99,,2013-04-17 20:03:00,
2013-04-17 16:12:00,62.0,32.0,30.20,NW,316,6.0,-999.0,32,-99.99,,,-99.99,,2013-04-17 20:12:00,
2013-04-17 16:22:00,62.0,32.0,30.20,NW,316,6.0,-999.0,32,-99.99,,,-99.99,,2013-04-17 20:22:00,
2013-04-17 16:33:00,62.0,30.0,30.21,NE,40,6.0,-999.0,30,-99.99,,,-99.99,,2013-04-17 20:33:00,
2013-04-17 16:42:00,62.0,30.0,30.21,NE,40,6.0,-999.0,30,-99.99,,,-99.99,,2013-04-17 20:42:00,
2013-04-17 16:52:00,62.0,29.0,30.21,North,9,7.0,-999.0,29,-99.99,,,-99.99,,2013-04-17 20:52:00,
2013-04-17 17:03:00,63.0,30.0,30.21,NNW,337,6.0,-999.0,29,-99.99,,,-99.99,,2013-04-17 21:03:00,
2013-04-17 17:12:00,63.0,30.0,30.21,NNW,337,6.0,-999.0,29,-99.99,,,-99.99,,2013-04-17 21:12:00,
2013-04-17 17:22:00,63.0,30.0,30.20,NNW,344,5.0,-999.0,29,-99.99,,,-99.99,,2013-04-17 21:22:00,
2013-04-17 17:33:00,63.0,31.0,30.22,WNW,295,4.0,-999.0,30,-99.99,,,-99.99,,2013-04-17 21:33:00,
2013-04-17 17:42:00,63.0,31.0,30.22,WNW,295,4.0,-999.0,30,-99.99,,,-99.99,,2013-04-17 21:42:00,
2013-04-17 17:53:00,63.0,31.0,30.22,NNW,328,5.0,-999.0,30,-99.99,,,-99.99,,2013-04-17 21:53:00,
2013-04-17 18:02:00,63.0,31.0,30.23,NNW,337,3.0,-999.0,30,-99.99,,,-99.99,,2013-04-17 22:02:00,
2013-04-17 18:12:00,63.0,31.0,30.23,NNW,337,3.0,-999.0,30,-99.99,,,-99.99,,2013-04-17 22:12:00,
2013-04-17 18:22:00,62.0,30.0,30.23,NNE,23,5.0,-999.0,30,-99.99,,,-99.99,,2013-04-17 22:22:00,
2013-04-17 18:33:00,62.0,31.0,30.23,NNW,348,3.0,-999.0,31,-99.99,,,-99.99,,2013-04-17 22:33:00,
2013-04-17 18:42:00,61.0,31.0,30.24,NNE,25,5.0,-999.0,32,-99.99,,,-99.99,,2013-04-17 22:42:00,
2013-04-17 18:53:00,61.0,31.0,30.24,NNE,25,5.0,-999.0,32,-99.99,,,-99.99,,2013-04-17 22:53:00,
2013-04-17 19:02:00,61.0,32.0,30.23,NE,40,2.0,-999.0,33,-99.99,,,-99.99,,2013-04-17 23:02:00,
2013-04-17 19:12:00,60.0,32.0,30.24,North,359,2.0,-999.0,34,-99.99,,,-99.99,,2013-04-17 23:12:00,
2013-04-17 19:22:00,60.0,32.0,30.24,North,359,2.0,-999.0,34,-99.99,,,-99.99,,2013-04-17 23:22:00,
2013-04-17 19:32:00,60.0,33.0,30.25,NNW,328,1.0,-999.0,36,-99.99,,,-99.99,,2013-04-17 23:32:00,
2013-04-17 19:42:00,59.0,32.0,30.25,North,4,1.0,-999.0,36,-99.99,,,-99.99,,2013-04-17 23:42:00,
2013-04-17 19:52:00,59.0,32.0,30.25,North,4,1.0,-999.0,36,-99.99,,,-99.99,,2013-04-17 23:52:00,
2013-04-17 20:02:00,59.0,33.0,30.25,NNW,327,0.0,-999.0,37,-99.99,,,-99.99,,2013-04-18 00:02:00,
2013-04-17 20:12:00,58.0,33.0,30.25,NNE,13,0.0,-999.0,38,-99.99,,,-99.99,,2013-04-18 00:12:00,
2013-04-17 20:22:00,58.0,33.0,30.25,NNE,13,0.0,-999.0,38,-99.99,,,-99.99,,2013-04-18 00:22:00,
2013-04-17 20:32:00,57.0,32.0,30.26,NNE,14,0.0,-999.0,39,-99.99,,,-99.99,,2013-04-18 00:32:00,
2013-04-17 20:42:00,56.0,32.0,30.26,NNE,14,0.0,-999.0,40,-99.99,,,-99.99,,2013-04-18 00:42:00,
2013-04-17 20:52:00,56.0,32.0,30.26,NNE,14,0.0,-999.0,40,-99.99,,,-99.99,,2013-04-18 00:52:00,
2013-04-17 21:02:00,56.0,33.0,30.27,NNE,14,0.0,-999.0,41,-99.99,,,-99.99,,2013-04-18 01:02:00,
2013-04-17 21:12:00,55.0,32.0,30.27,NNE,13,0.0,-999.0,42,-99.99,,,-99.99,,2013-04-18 01:12:00,
2013-04-17 21:22:00,55.0,32.0,30.27,NNE,13,0.0,-999.0,42,-99.99,,,-99.99,,2013-04-18 01:22:00,
2013-04-17 21:32:00,55.0,33.0,30.29,NNE,13,0.0,-999.0,43,-99.99,,,-99.99,,2013-04-18 01:32:00,
2013-04-17 21:42:00,54.0,33.0,30.29,NNE,14,0.0,-999.0,44,-99.99,,,-99.99,,2013-04-18 01:42:00,
2013-04-17 21:52:00,54.0,33.0,30.29,NNE,14,0.0,-999.0,44,-99.99,,,-99.99,,2013-04-18 01:52:00,
2013-04-17 22:02:00,53.0,32.0,30.29,NNE,14,0.0,-999.0,44,-99.99,,,-99.99,,2013-04-18 02:02:00,
2013-04-17 22:12:00,53.0,32.0,30.30,NNE,14,0.0,-999.0,45,-99.99,,,-99.99,,2013-04-18 02:12:00,
2013-04-17 22:22:00,53.0,32.0,30.30,NNE,14,0.0,-999.0,45,-99.99,,,-99.99,,2013-04-18 02:22:00,
2013-04-17 22:32:00,54.0,33.0,30.30,NNE,14,0.0,-999.0,44,-99.99,,,-99.99,,2013-04-18 02:32:00,
2013-04-17 22:42:00,54.0,33.0,30.30,NNE,14,0.0,-999.0,44,-99.99,,,-99.99,,2013-04-18 02:42:00,
2013-04-17 22:52:00,54.0,33.0,30.30,NNE,14,0.0,-999.0,44,-99.99,,,-99.99,,2013-04-18 02:52:00,
2013-04-17 23:02:00,53.0,31.0,30.28,NE,54,0.0,-999.0,42,-99.99,,,-99.99,,2013-04-18 03:02:00,
2013-04-17 23:12:00,52.0,30.0,30.29,NE,54,0.0,-999.0,42,-99.99,,,-99.99,,2013-04-18 03:12:00,
2013-04-17 23:22:00,52.0,30.0,30.29,NE,54,0.0,-999.0,42,-99.99,,,-99.99,,2013-04-18 03:22:00,
2013-04-17 23:33:00,51.0,29.0,30.29,NE,56,0.0,-999.0,42,-99.99,,,-99.99,,2013-04-18 03:33:00,
2013-04-17 23:43:00,51.0,28.0,30.29,NE,56,0.0,-999.0,41,-99.99,,,-99.99,,2013-04-18 03:43:00,
2013-04-17 23:53:00,51.0,28.0,30.29,NE,56,0.0,-999.0,41,-99.99,,,-99.99,,2013-04-18 03:53:00,